Hourly Data Report for October 03, 2017

All times are specified in Local Standard Time (LST). Add 1 hour to adjust for Daylight Saving Time where and when it is observed.

MONCTON INTL A
NEW BRUNSWICK

46°06'44.000" N
64°40'43.000" W
70.70 m
8103201
71705
YQM

Download Data

Hourly Data (October 2017)
Hourly Data Report for October 3, 2017
Temp Definition
°C
Dew Point Temp Definition
°C
Rel Hum Definition
%
Wind Dir Definition
10's deg

Wind Spd Definition
km/h
Visibility Definition
km
Stn Press Definition
kPa
Hmdx Definition


Wind Chill Definition


Weather Definition


TIME
00:00 Legend Double Dagger 1.6 1.0 96 25 10 24.1 102.58     LegendNANA
01:00 Legend Double Dagger 0.3 -0.2 96 22 11 24.1 102.64     LegendNANA
02:00 Legend Double Dagger -0.1 -0.6 97 21 10 24.1 102.65   -3 Mainly Clear
03:00 Legend Double Dagger -0.1 -0.6 97 24 8 24.1 102.69   -3 LegendNANA
04:00 Legend Double Dagger 0.0 -0.4 97 23 14 24.1 102.72   -4 LegendNANA
05:00 Legend Double Dagger -0.7 -1.2 97 21 12 24.1 102.75   -5 Mainly Clear
06:00 Legend Double Dagger -0.6 -1.0 97 24 12 24.1 102.81   -5 LegendNANA
07:00 Legend Double Dagger -0.5 -0.9 97 22 14 24.1 102.80   -5 LegendNANA
08:00 Legend Double Dagger 2.2 1.4 94 23 16 24.1 102.84     Mainly Clear
09:00 Legend Double Dagger 5.3 2.5 82 24 15 24.1 102.87     LegendNANA
10:00 Legend Double Dagger 8.3 3.9 74 23 10 24.1 102.84     LegendNANA
11:00 Legend Double Dagger 9.5 3.1 64 24 13 24.1 102.81     Mostly Cloudy
12:00 Legend Double Dagger 11.1 3.4 59 25 15 24.1 102.82     LegendNANA
13:00 Legend Double Dagger 11.8 3.1 55 22 11 24.1 102.74     LegendNANA
14:00 Legend Double Dagger 12.4 2.9 52 21 15 24.1 102.61     Cloudy
15:00 Legend Double Dagger 12.8 4.0 55 21 12 24.1 102.50     LegendNANA
16:00 Legend Double Dagger 12.9 2.9 50 20 15 24.1 102.33     LegendNANA
17:00 Legend Double Dagger 12.0 5.4 64 19 10 24.1 102.30     Mostly Cloudy
18:00 Legend Double Dagger 10.2 4.0 65 20 10 24.1 102.27     LegendNANA
19:00 Legend Double Dagger 8.3 5.0 80 17 12 24.1 102.23     LegendNANA
20:00 Legend Double Dagger 7.3 5.2 86 18 12 24.1 102.19     Mainly Clear
21:00 Legend Double Dagger 7.4 5.4 87 19 12 24.1 102.14     LegendNANA
22:00 Legend Double Dagger 6.5 5.0 90 18 13 24.1 102.06     LegendNANA
23:00 Legend Double Dagger 6.8 5.0 89 19 14 24.1 101.97     Mainly Clear

Notes on Data Quality.

Legend

  • E = Estimated
  • M = Missing
  • NA = Not Available
  • ‡ = Partner data that is not subject to review by the National Climate Archives
Date modified: